TimeEST,TemperatureF,Dew PointF,Humidity,Sea Level PressureIn,VisibilityMPH,Wind Direction,Wind SpeedMPH,Gust SpeedMPH,PrecipitationIn,Events,Conditions,WindDirDegrees,DateUTC
12:51 AM,36.0,25.0,64,30.35,10.0,Calm,Calm,-,N/A,,Overcast,0,2012-11-16 05:51:00
1:51 AM,33.1,25.0,72,30.35,10.0,Calm,Calm,-,N/A,,Scattered Clouds,0,2012-11-16 06:51:00
2:51 AM,32.0,24.8,75,30.31,10.0,NW,4.6,-,N/A,,Scattered Clouds,310,2012-11-16 07:51:00
3:51 AM,30.2,24.8,80,30.31,10.0,NW,4.6,-,N/A,,Partly Cloudy,310,2012-11-16 08:51:00
4:51 AM,30.9,25.0,79,30.37,10.0,NW,4.6,-,N/A,,Partly Cloudy,320,2012-11-16 09:51:00
5:51 AM,30.0,25.0,82,30.39,10.0,NW,4.6,-,N/A,,Partly Cloudy,310,2012-11-16 10:51:00
6:51 AM,30.2,24.8,80,30.34,10.0,North,4.6,-,N/A,,Scattered Clouds,360,2012-11-16 11:51:00
7:51 AM,32.0,27.0,82,30.43,9.0,North,3.5,-,N/A,,Scattered Clouds,350,2012-11-16 12:51:00
8:51 AM,35.1,28.9,78,30.44,9.0,North,4.6,-,N/A,,Scattered Clouds,350,2012-11-16 13:51:00
9:51 AM,37.9,30.0,73,30.45,10.0,North,4.6,-,N/A,,Scattered Clouds,360,2012-11-16 14:51:00
10:51 AM,43.0,30.9,62,30.45,10.0,North,6.9,-,N/A,,Scattered Clouds,360,2012-11-16 15:51:00
11:51 AM,45.0,30.9,58,30.43,10.0,NE,4.6,-,N/A,,Scattered Clouds,50,2012-11-16 16:51:00
12:51 PM,48.0,30.0,50,30.43,10.0,North,9.2,-,N/A,,Partly Cloudy,350,2012-11-16 17:51:00
1:51 PM,48.9,28.9,46,30.43,10.0,NNW,6.9,-,N/A,,Partly Cloudy,330,2012-11-16 18:51:00
2:51 PM,50.0,28.9,44,30.43,10.0,North,4.6,-,N/A,,Partly Cloudy,360,2012-11-16 19:51:00
3:51 PM,48.9,28.9,46,30.44,10.0,North,6.9,-,N/A,,Partly Cloudy,350,2012-11-16 20:51:00
4:51 PM,46.9,30.0,52,30.45,10.0,North,8.1,-,N/A,,Partly Cloudy,350,2012-11-16 21:51:00
5:51 PM,44.1,28.9,55,30.47,10.0,NNW,4.6,-,N/A,,Clear,330,2012-11-16 22:51:00
6:51 PM,41.0,28.9,62,30.48,10.0,NNW,4.6,-,N/A,,Clear,340,2012-11-16 23:51:00
7:51 PM,39.0,28.0,65,30.49,10.0,North,4.6,-,N/A,,Clear,350,2012-11-17 00:51:00
8:51 PM,39.0,28.9,67,30.50,10.0,North,5.8,-,N/A,,Clear,350,2012-11-17 01:51:00
9:51 PM,39.0,28.9,67,30.51,10.0,North,4.6,-,N/A,,Clear,350,2012-11-17 02:51:00
10:51 PM,39.0,28.9,67,30.51,10.0,Variable,3.5,-,N/A,,Clear,0,2012-11-17 03:51:00
11:51 PM,37.0,28.9,73,30.52,10.0,NE,3.5,-,N/A,,Clear,40,2012-11-17 04:51:00